Darstellungsparameter: Aktuell verwendete Einstellungen:
Skalierung der Graphiken ... ?
xyx+y,   Skalierungsfaktor:      Skalierung: Modus: x, Faktor: 1
Darstellungszeitraum ... ?
Vom - - bis: - -   Zeitraum: 17.05.2020 - 19.05.2020
Min/Max/Avg-Anzeige ... ?
Zeige MMA aktuell
Zeige MMA Monat
Zeige MMA alles
Zeige --A aktuell
Zeige --A Monat
Zeige --A alles
Keine MMA-Anzeige
MMA:
Keine MMA-Graphiken
MMA-Basis: 17.05.2020 - 19.05.2020
Quicknavigation für Darstellung... ?
Tage:      1T, 2T, 3T, 5T -1T -2T -3T -5T +1T +2T +3T +5T
Wochen: 1W, 2W, 3W -1W -2W -3W +1W +2W +3W
Monate: 1M, 3M, 6M -1M -3M -6M +1M +3M +6M
Jahre:    1J, 3J, 5J, 10J -1J -3J -5J -10J +1J +3J +5J +10J
Nutze für die Darstellung ... ?
Originaldaten oder Mittelwerte auf ...
Stundenbasis Tagesbasis Wochenbasis
Monatsbasis Jahresbasis      Datenbasis: Original-Daten
Darstellen als:
Statistik (Auto) Statistik J:M      Darstellung:
Zur Graphik,    zurück zur Übersicht aller Sensoren.
 
Tabellarische Datenbersicht: ?
 
Sensor: Nr:Datum:Temp:Feuchte:Taupunkt:
Aussen-T/F 1 17-05-2020 00:00:00 11.7 C 67 % 5.78 C
2 17-05-2020 00:05:00 11.7 C 68 % 6 C
3 17-05-2020 00:10:00 11.8 C 67 % 5.88 C
4 17-05-2020 00:15:00 11.8 C 68 % 6.09 C
5 17-05-2020 00:20:00 11.7 C 68 % 6 C
6 17-05-2020 00:25:00 11.5 C 69 % 6.02 C
7 17-05-2020 00:30:00 11.3 C 69 % 5.83 C
8 17-05-2020 00:35:00 11.2 C 70 % 5.94 C
9 17-05-2020 00:40:00 11.1 C 71 % 6.05 C
10 17-05-2020 00:45:00 10.8 C 71 % 5.76 C
11 17-05-2020 00:50:00 10.7 C 72 % 5.87 C
12 17-05-2020 00:55:00 10.5 C 73 % 5.87 C
13 17-05-2020 01:00:00 10.4 C 73 % 5.78 C
14 17-05-2020 01:05:00 10.3 C 74 % 5.88 C
15 17-05-2020 01:10:00 10.2 C 74 % 5.78 C
16 17-05-2020 01:15:00 10.2 C 74 % 5.78 C
17 17-05-2020 01:20:00 10 C 74 % 5.59 C
18 17-05-2020 01:25:00 9.9 C 75 % 5.68 C
19 17-05-2020 01:30:00 9.8 C 76 % 5.78 C
20 17-05-2020 01:35:00 9.7 C 76 % 5.68 C
21 17-05-2020 01:40:00 9.6 C 76 % 5.58 C
22 17-05-2020 01:45:00 9.5 C 76 % 5.49 C
23 17-05-2020 01:50:00 9.4 C 76 % 5.39 C
24 17-05-2020 01:55:00 9.3 C 77 % 5.48 C
25 17-05-2020 02:00:00 9.2 C 77 % 5.38 C
Sensor: Nr:Datum:Temp:Feuchte:Taupunkt:
Aussen-T/F 26 17-05-2020 02:05:00 9.2 C 77 % 5.38 C
27 17-05-2020 02:10:00 9.1 C 77 % 5.29 C
28 17-05-2020 02:15:00 9.1 C 78 % 5.47 C
29 17-05-2020 02:20:00 9.1 C 78 % 5.47 C
30 17-05-2020 02:25:00 9.2 C 77 % 5.38 C
31 17-05-2020 02:30:00 9.3 C 77 % 5.48 C
32 17-05-2020 02:35:00 9.3 C 77 % 5.48 C
33 17-05-2020 02:40:00 9.2 C 77 % 5.38 C
34 17-05-2020 02:45:00 9.1 C 77 % 5.29 C
35 17-05-2020 02:50:00 9 C 78 % 5.38 C
36 17-05-2020 02:55:00 8.9 C 79 % 5.46 C
37 17-05-2020 03:00:00 8.8 C 79 % 5.36 C
38 17-05-2020 03:05:00 8.7 C 80 % 5.45 C
39 17-05-2020 03:10:00 8.6 C 81 % 5.53 C
40 17-05-2020 03:15:00 8.6 C 81 % 5.53 C
41 17-05-2020 03:20:00 8.6 C 81 % 5.53 C
42 17-05-2020 03:25:00 8.6 C 81 % 5.53 C
43 17-05-2020 03:30:00 8.6 C 81 % 5.53 C
44 17-05-2020 03:35:00 8.6 C 82 % 5.71 C
45 17-05-2020 03:40:00 8.5 C 82 % 5.61 C
46 17-05-2020 03:45:00 8.6 C 82 % 5.71 C
47 17-05-2020 03:50:00 8.7 C 82 % 5.8 C
48 17-05-2020 03:55:00 8.6 C 81 % 5.53 C
49 17-05-2020 04:00:00 8.6 C 82 % 5.71 C
50 17-05-2020 04:05:00 8.6 C 82 % 5.71 C
Sensor: Nr:Datum:Temp:Feuchte:Taupunkt:
Aussen-T/F 51 17-05-2020 04:10:00 8.6 C 82 % 5.71 C
52 17-05-2020 04:15:00 8.5 C 82 % 5.61 C
53 17-05-2020 04:20:00 8.4 C 82 % 5.51 C
54 17-05-2020 04:25:00 8.4 C 83 % 5.69 C
55 17-05-2020 04:30:00 8.3 C 83 % 5.59 C
56 17-05-2020 04:35:00 8.2 C 83 % 5.49 C
57 17-05-2020 04:40:00 8.1 C 83 % 5.39 C
58 17-05-2020 04:45:00 7.9 C 84 % 5.37 C
59 17-05-2020 04:50:00 7.8 C 84 % 5.27 C
60 17-05-2020 04:55:00 7.7 C 85 % 5.34 C
61 17-05-2020 05:00:00 7.6 C 85 % 5.24 C
62 17-05-2020 05:05:00 7.5 C 85 % 5.15 C
63 17-05-2020 05:10:00 7.4 C 86 % 5.22 C
64 17-05-2020 05:15:00 7.3 C 86 % 5.12 C
65 17-05-2020 05:20:00 7.3 C 86 % 5.12 C
66 17-05-2020 05:25:00 7.2 C 87 % 5.19 C
67 17-05-2020 05:30:00 7.2 C 87 % 5.19 C
68 17-05-2020 05:35:00 7.1 C 87 % 5.09 C
69 17-05-2020 05:40:00 7.1 C 87 % 5.09 C
70 17-05-2020 05:45:00 6.9 C 87 % 4.89 C
71 17-05-2020 05:50:00 6.8 C 87 % 4.79 C
72 17-05-2020 05:55:00 6.8 C 87 % 4.79 C
73 17-05-2020 06:00:00 6.8 C 87 % 4.79 C
74 17-05-2020 06:05:00 6.7 C 87 % 4.69 C
75 17-05-2020 06:10:00 6.7 C 88 % 4.86 C
Sensor: Nr:Datum:Temp:Feuchte:Taupunkt:
Aussen-T/F 76 17-05-2020 06:15:00 6.7 C 88 % 4.86 C
77 17-05-2020 06:20:00 6.7 C 88 % 4.86 C
78 17-05-2020 06:25:00 6.7 C 88 % 4.86 C
79 17-05-2020 06:30:00 6.7 C 88 % 4.86 C
80 17-05-2020 06:35:00 6.7 C 88 % 4.86 C
81 17-05-2020 06:40:00 6.7 C 88 % 4.86 C
82 17-05-2020 06:45:00 6.7 C 88 % 4.86 C
83 17-05-2020 06:50:00 6.7 C 88 % 4.86 C
84 17-05-2020 06:55:00 6.7 C 88 % 4.86 C
85 17-05-2020 07:00:00 6.8 C 89 % 5.12 C
86 17-05-2020 07:05:00 6.8 C 89 % 5.12 C
87 17-05-2020 07:10:00 6.9 C 89 % 5.22 C
88 17-05-2020 07:15:00 7 C 88 % 5.15 C
89 17-05-2020 07:20:00 7 C 88 % 5.15 C
90 17-05-2020 07:25:00 6.9 C 88 % 5.05 C
91 17-05-2020 07:30:00 6.9 C 88 % 5.05 C
92 17-05-2020 07:35:00 6.9 C 89 % 5.22 C
93 17-05-2020 07:40:00 6.9 C 89 % 5.22 C
94 17-05-2020 07:45:00 7 C 89 % 5.31 C
95 17-05-2020 07:50:00 7 C 89 % 5.31 C
96 17-05-2020 07:55:00 7.1 C 89 % 5.41 C
97 17-05-2020 08:00:00 7.1 C 89 % 5.41 C
98 17-05-2020 08:05:00 7.2 C 89 % 5.51 C
99 17-05-2020 08:10:00 7.2 C 89 % 5.51 C
100 17-05-2020 08:15:00 7.3 C 89 % 5.61 C
Sensor: Nr:Datum:Temp:Feuchte:Taupunkt:
Aussen-T/F 101 17-05-2020 08:20:00 7.3 C 89 % 5.61 C
102 17-05-2020 08:25:00 7.4 C 89 % 5.71 C
103 17-05-2020 08:30:00 7.4 C 89 % 5.71 C
104 17-05-2020 08:35:00 7.5 C 89 % 5.81 C
105 17-05-2020 08:40:00 7.6 C 89 % 5.91 C
106 17-05-2020 08:45:00 7.8 C 89 % 6.1 C
107 17-05-2020 08:50:00 7.9 C 88 % 6.04 C
108 17-05-2020 08:55:00 8.2 C 88 % 6.33 C
109 17-05-2020 09:00:00 8.4 C 87 % 6.37 C
110 17-05-2020 09:05:00 8.7 C 85 % 6.32 C
111 17-05-2020 09:10:00 9.1 C 83 % 6.37 C
112 17-05-2020 09:15:00 9.3 C 82 % 6.39 C
113 17-05-2020 09:20:00 9.6 C 80 % 6.32 C
114 17-05-2020 09:25:00 9.9 C 79 % 6.43 C
115 17-05-2020 09:30:00 10.2 C 78 % 6.54 C
116 17-05-2020 09:35:00 10.4 C 77 % 6.55 C
117 17-05-2020 09:40:00 10.7 C 75 % 6.46 C
118 17-05-2020 09:45:00 10.9 C 73 % 6.26 C
119 17-05-2020 09:50:00 11.2 C 70 % 5.94 C
120 17-05-2020 09:55:00 11.2 C 69 % 5.73 C
121 17-05-2020 10:00:00 11.3 C 68 % 5.62 C
122 17-05-2020 10:05:00 11.4 C 68 % 5.71 C
123 17-05-2020 10:10:00 11.6 C 68 % 5.9 C
124 17-05-2020 10:15:00 11.7 C 69 % 6.21 C
125 17-05-2020 10:20:00 11.9 C 66 % 5.76 C
Sensor: Nr:Datum:Temp:Feuchte:Taupunkt:
Aussen-T/F 126 17-05-2020 10:25:00 12.2 C 65 % 5.82 C
127 17-05-2020 10:30:00 12.4 C 66 % 6.23 C
128 17-05-2020 10:35:00 12.6 C 65 % 6.2 C
129 17-05-2020 10:40:00 12.8 C 63 % 5.94 C
130 17-05-2020 10:45:00 12.9 C 62 % 5.8 C
131 17-05-2020 10:50:00 12.9 C 63 % 6.04 C
132 17-05-2020 10:55:00 12.9 C 61 % 5.57 C
133 17-05-2020 11:00:00 12.9 C 62 % 5.8 C
134 17-05-2020 11:05:00 12.9 C 62 % 5.8 C
135 17-05-2020 11:10:00 13.1 C 61 % 5.76 C
136 17-05-2020 11:15:00 13.1 C 61 % 5.76 C
137 17-05-2020 11:20:00 13.1 C 60 % 5.52 C
138 17-05-2020 11:25:00 13.1 C 61 % 5.76 C
139 17-05-2020 11:30:00 13.2 C 61 % 5.85 C
140 17-05-2020 11:35:00 13.3 C 61 % 5.95 C
141 17-05-2020 11:40:00 13.4 C 62 % 6.28 C
142 17-05-2020 11:45:00 13.4 C 61 % 6.04 C
143 17-05-2020 11:50:00 13.6 C 61 % 6.23 C
144 17-05-2020 11:55:00 13.7 C 59 % 5.84 C
145 17-05-2020 12:00:00 13.7 C 58 % 5.6 C
146 17-05-2020 12:05:00 13.8 C 58 % 5.69 C
147 17-05-2020 12:10:00 14 C 57 % 5.63 C
148 17-05-2020 12:15:00 14.2 C 57 % 5.81 C
149 17-05-2020 12:20:00 14.3 C 56 % 5.65 C
150 17-05-2020 12:25:00 14.3 C 56 % 5.65 C
Sensor: Nr:Datum:Temp:Feuchte:Taupunkt:
Aussen-T/F 151 17-05-2020 12:30:00 14.2 C 56 % 5.56 C
152 17-05-2020 12:35:00 14.3 C 57 % 5.91 C
153 17-05-2020 12:40:00 14.4 C 57 % 6 C
154 17-05-2020 12:45:00 14.7 C 55 % 5.76 C
155 17-05-2020 12:50:00 14.6 C 55 % 5.67 C
156 17-05-2020 12:55:00 14.6 C 56 % 5.93 C
157 17-05-2020 13:00:00 14.6 C 55 % 5.67 C
158 17-05-2020 13:05:00 14.8 C 56 % 6.12 C
159 17-05-2020 13:10:00 14.9 C 53 % 5.42 C
160 17-05-2020 13:15:00 15.1 C 52 % 5.33 C
161 17-05-2020 13:20:00 15.3 C 52 % 5.51 C
162 17-05-2020 13:25:00 15.4 C 52 % 5.61 C
163 17-05-2020 13:30:00 15.4 C 51 % 5.33 C
164 17-05-2020 13:35:00 15.6 C 52 % 5.79 C
165 17-05-2020 13:40:00 15.7 C 51 % 5.6 C
166 17-05-2020 13:45:00 15.8 C 51 % 5.69 C
167 17-05-2020 13:50:00 15.8 C 52 % 5.97 C
168 17-05-2020 13:55:00 15.9 C 51 % 5.79 C
169 17-05-2020 14:00:00 16.2 C 49 % 5.49 C
170 17-05-2020 14:05:00 16.3 C 49 % 5.58 C
171 17-05-2020 14:10:00 16.4 C 50 % 5.96 C
172 17-05-2020 14:15:00 16.6 C 48 % 5.56 C
173 17-05-2020 14:20:00 16.6 C 47 % 5.25 C
174 17-05-2020 14:25:00 16.8 C 47 % 5.44 C
175 17-05-2020 14:30:00 16.9 C 47 % 5.53 C
Sensor: Nr:Datum:Temp:Feuchte:Taupunkt:
Aussen-T/F 176 17-05-2020 14:35:00 16.9 C 47 % 5.53 C
177 17-05-2020 14:40:00 17.1 C 47 % 5.71 C
178 17-05-2020 14:45:00 17.4 C 46 % 5.67 C
179 17-05-2020 14:50:00 17.5 C 43 % 4.8 C
180 17-05-2020 14:55:00 17.5 C 46 % 5.76 C
181 17-05-2020 15:00:00 17.8 C 44 % 5.4 C
182 17-05-2020 15:05:00 17.9 C 43 % 5.16 C
183 17-05-2020 15:10:00 18 C 41 % 4.57 C
184 17-05-2020 15:15:00 18.1 C 41 % 4.66 C
185 17-05-2020 15:20:00 18.1 C 43 % 5.34 C
186 17-05-2020 15:25:00 18.3 C 40 % 4.48 C
187 17-05-2020 15:30:00 18.6 C 41 % 5.1 C
188 17-05-2020 15:35:00 19.2 C 42 % 5.99 C
189 17-05-2020 15:40:00 19.5 C 40 % 5.56 C
190 17-05-2020 15:45:00 19.4 C 40 % 5.47 C
191 17-05-2020 15:50:00 19.4 C 40 % 5.47 C
192 17-05-2020 15:55:00 19.2 C 41 % 5.64 C
193 17-05-2020 16:00:00 19.2 C 41 % 5.64 C
194 17-05-2020 16:05:00 19.3 C 40 % 5.38 C
195 17-05-2020 16:10:00 19.4 C 41 % 5.82 C
196 17-05-2020 16:15:00 19.8 C 39 % 5.46 C
197 17-05-2020 16:20:00 20 C 38 % 5.26 C
198 17-05-2020 16:25:00 20.2 C 38 % 5.44 C
199 17-05-2020 16:30:00 20.4 C 36 % 4.84 C
200 17-05-2020 16:35:00 20.7 C 36 % 5.11 C
Sensor: Nr:Datum:Temp:Feuchte:Taupunkt:
Aussen-T/F 201 17-05-2020 16:40:00 20.7 C 35 % 4.7 C
202 17-05-2020 16:45:00 20.7 C 35 % 4.7 C
203 17-05-2020 16:50:00 20.6 C 35 % 4.62 C
204 17-05-2020 16:55:00 20.6 C 35 % 4.62 C
205 17-05-2020 17:00:00 20.7 C 34 % 4.29 C
206 17-05-2020 17:05:00 20.3 C 34 % 3.94 C
207 17-05-2020 17:10:00 20.4 C 35 % 4.44 C
208 17-05-2020 17:15:00 20.8 C 35 % 4.79 C
209 17-05-2020 17:20:00 20.8 C 34 % 4.38 C
210 17-05-2020 17:25:00 20.8 C 33 % 3.95 C
211 17-05-2020 17:30:00 20.8 C 34 % 4.38 C
212 17-05-2020 17:35:00 20.9 C 34 % 4.47 C
213 17-05-2020 17:40:00 20.7 C 35 % 4.7 C
214 17-05-2020 17:45:00 20.5 C 36 % 4.93 C
215 17-05-2020 17:50:00 20.7 C 36 % 5.11 C
216 17-05-2020 17:55:00 20.9 C 36 % 5.28 C
217 17-05-2020 18:00:00 21.1 C 35 % 5.06 C
218 17-05-2020 18:05:00 21.1 C 35 % 5.06 C
219 17-05-2020 18:10:00 21 C 35 % 4.97 C
220 17-05-2020 18:15:00 21.1 C 36 % 5.46 C
221 17-05-2020 18:20:00 21.2 C 35 % 5.14 C
222 17-05-2020 18:25:00 20.7 C 36 % 5.11 C
223 17-05-2020 18:30:00 20.7 C 36 % 5.11 C
224 17-05-2020 18:35:00 20.9 C 37 % 5.68 C
225 17-05-2020 18:40:00 21.2 C 37 % 5.94 C
Sensor: Nr:Datum:Temp:Feuchte:Taupunkt:
Aussen-T/F 226 17-05-2020 18:45:00 21.1 C 35 % 5.06 C
227 17-05-2020 18:50:00 20.8 C 35 % 4.79 C
228 17-05-2020 18:55:00 20.6 C 35 % 4.62 C
229 17-05-2020 19:00:00 20.4 C 36 % 4.84 C
230 17-05-2020 19:05:00 20.6 C 37 % 5.41 C
231 17-05-2020 19:10:00 20.7 C 37 % 5.5 C
232 17-05-2020 19:15:00 20.6 C 36 % 5.02 C
233 17-05-2020 19:20:00 20.4 C 36 % 4.84 C
234 17-05-2020 19:25:00 20 C 37 % 4.88 C
235 17-05-2020 19:30:00 19.8 C 38 % 5.09 C
236 17-05-2020 19:35:00 19.8 C 38 % 5.09 C
237 17-05-2020 19:40:00 19.6 C 38 % 4.91 C
238 17-05-2020 19:45:00 19.4 C 39 % 5.1 C
239 17-05-2020 19:50:00 19.4 C 39 % 5.1 C
240 17-05-2020 19:55:00 19.4 C 40 % 5.47 C
241 17-05-2020 20:00:00 19.3 C 40 % 5.38 C
242 17-05-2020 20:05:00 19.2 C 41 % 5.64 C
243 17-05-2020 20:10:00 19.1 C 40 % 5.2 C
244 17-05-2020 20:15:00 18.9 C 41 % 5.37 C
245 17-05-2020 20:20:00 18.7 C 42 % 5.54 C
246 17-05-2020 20:25:00 18.6 C 42 % 5.45 C
247 17-05-2020 20:30:00 18.4 C 42 % 5.27 C
248 17-05-2020 20:35:00 18.3 C 43 % 5.52 C
249 17-05-2020 20:40:00 18.2 C 44 % 5.76 C
250 17-05-2020 20:45:00 18 C 49 % 7.14 C
Sensor: Nr:Datum:Temp:Feuchte:Taupunkt:
Aussen-T/F 251 17-05-2020 20:50:00 17.7 C 50 % 7.16 C
252 17-05-2020 20:55:00 17.2 C 52 % 7.27 C
253 17-05-2020 21:00:00 16.7 C 53 % 7.08 C
254 17-05-2020 21:05:00 16.1 C 54 % 6.8 C
255 17-05-2020 21:10:00 15.7 C 55 % 6.69 C
256 17-05-2020 21:15:00 15.3 C 56 % 6.58 C
257 17-05-2020 21:20:00 14.9 C 56 % 6.21 C
258 17-05-2020 21:25:00 14.7 C 57 % 6.28 C
259 17-05-2020 21:30:00 14.4 C 58 % 6.25 C
260 17-05-2020 21:35:00 14.2 C 58 % 6.06 C
261 17-05-2020 21:40:00 14 C 59 % 6.12 C
262 17-05-2020 21:45:00 13.8 C 60 % 6.18 C
263 17-05-2020 21:50:00 13.7 C 60 % 6.09 C
264 17-05-2020 21:55:00 13.6 C 60 % 5.99 C
265 17-05-2020 22:00:00 13.5 C 60 % 5.9 C
266 17-05-2020 22:05:00 13.4 C 60 % 5.8 C
267 17-05-2020 22:10:00 13.4 C 60 % 5.8 C
268 17-05-2020 22:15:00 13.3 C 61 % 5.95 C
269 17-05-2020 22:20:00 13.3 C 61 % 5.95 C
270 17-05-2020 22:25:00 13.2 C 62 % 6.09 C
271 17-05-2020 22:30:00 13.1 C 63 % 6.22 C
272 17-05-2020 22:35:00 12.9 C 63 % 6.04 C
273 17-05-2020 22:40:00 12.7 C 64 % 6.07 C
274 17-05-2020 22:45:00 12.6 C 64 % 5.98 C
275 17-05-2020 22:50:00 12.4 C 67 % 6.45 C
Sensor: Nr:Datum:Temp:Feuchte:Taupunkt:
Aussen-T/F 276 17-05-2020 22:55:00 12.1 C 67 % 6.17 C
277 17-05-2020 23:00:00 11.8 C 69 % 6.31 C
278 17-05-2020 23:05:00 11.5 C 70 % 6.23 C
279 17-05-2020 23:10:00 11.3 C 71 % 6.24 C
280 17-05-2020 23:15:00 11.1 C 71 % 6.05 C
281 17-05-2020 23:20:00 10.9 C 72 % 6.06 C
282 17-05-2020 23:25:00 10.7 C 72 % 5.87 C
283 17-05-2020 23:30:00 10.6 C 73 % 5.97 C
284 17-05-2020 23:35:00 10.4 C 74 % 5.97 C
285 17-05-2020 23:40:00 10.3 C 74 % 5.88 C
286 17-05-2020 23:45:00 10.2 C 75 % 5.97 C
287 17-05-2020 23:50:00 10.1 C 75 % 5.88 C
288 17-05-2020 23:55:00 9.9 C 75 % 5.68 C
289 18-05-2020 00:00:00 9.8 C 76 % 5.78 C
290 18-05-2020 00:05:00 9.7 C 76 % 5.68 C
291 18-05-2020 00:10:00 9.6 C 77 % 5.77 C
292 18-05-2020 00:15:00 9.6 C 77 % 5.77 C
293 18-05-2020 00:20:00 9.5 C 78 % 5.86 C
294 18-05-2020 00:25:00 9.4 C 78 % 5.76 C
295 18-05-2020 00:30:00 9.3 C 78 % 5.67 C
296 18-05-2020 00:35:00 9.2 C 78 % 5.57 C
297 18-05-2020 00:40:00 9.1 C 78 % 5.47 C
298 18-05-2020 00:45:00 9.1 C 79 % 5.66 C
299 18-05-2020 00:50:00 9 C 79 % 5.56 C
300 18-05-2020 00:55:00 8.9 C 79 % 5.46 C
Sensor: Nr:Datum:Temp:Feuchte:Taupunkt:
Aussen-T/F 301 18-05-2020 01:00:00 8.8 C 80 % 5.55 C
302 18-05-2020 01:05:00 8.8 C 80 % 5.55 C
303 18-05-2020 01:10:00 8.7 C 80 % 5.45 C
304 18-05-2020 01:15:00 8.7 C 81 % 5.63 C
305 18-05-2020 01:20:00 8.6 C 81 % 5.53 C
306 18-05-2020 01:25:00 8.6 C 81 % 5.53 C
307 18-05-2020 01:30:00 8.6 C 81 % 5.53 C
308 18-05-2020 01:35:00 8.5 C 81 % 5.43 C
309 18-05-2020 01:40:00 8.4 C 81 % 5.33 C
310 18-05-2020 01:45:00 8.3 C 82 % 5.41 C
311 18-05-2020 01:50:00 8.3 C 82 % 5.41 C
312 18-05-2020 01:55:00 8.2 C 82 % 5.32 C
313 18-05-2020 02:00:00 8.2 C 82 % 5.32 C
314 18-05-2020 02:05:00 8.2 C 83 % 5.49 C
315 18-05-2020 02:10:00 8.1 C 82 % 5.22 C
316 18-05-2020 02:15:00 8 C 83 % 5.29 C
317 18-05-2020 02:20:00 7.9 C 83 % 5.2 C
318 18-05-2020 02:25:00 8 C 84 % 5.47 C
319 18-05-2020 02:30:00 8 C 84 % 5.47 C
320 18-05-2020 02:35:00 8 C 84 % 5.47 C
321 18-05-2020 02:40:00 7.9 C 83 % 5.2 C
322 18-05-2020 02:45:00 7.8 C 83 % 5.1 C
323 18-05-2020 02:50:00 7.7 C 84 % 5.17 C
324 18-05-2020 02:55:00 7.6 C 84 % 5.07 C
325 18-05-2020 03:00:00 7.5 C 84 % 4.98 C
Sensor: Nr:Datum:Temp:Feuchte:Taupunkt:
Aussen-T/F 326 18-05-2020 03:05:00 7.4 C 85 % 5.05 C
327 18-05-2020 03:10:00 7.3 C 85 % 4.95 C
328 18-05-2020 03:15:00 7.2 C 85 % 4.85 C
329 18-05-2020 03:20:00 7.2 C 85 % 4.85 C
330 18-05-2020 03:25:00 7.1 C 86 % 4.92 C
331 18-05-2020 03:30:00 7.1 C 87 % 5.09 C
332 18-05-2020 03:35:00 7.1 C 87 % 5.09 C
333 18-05-2020 03:40:00 7.1 C 87 % 5.09 C
334 18-05-2020 03:45:00 7 C 87 % 4.99 C
335 18-05-2020 03:50:00 7 C 87 % 4.99 C
336 18-05-2020 03:55:00 7 C 87 % 4.99 C
337 18-05-2020 04:00:00 6.9 C 87 % 4.89 C
338 18-05-2020 04:05:00 6.9 C 88 % 5.05 C
339 18-05-2020 04:10:00 6.9 C 88 % 5.05 C
340 18-05-2020 04:15:00 6.8 C 87 % 4.79 C
341 18-05-2020 04:20:00 6.7 C 87 % 4.69 C
342 18-05-2020 04:25:00 6.7 C 87 % 4.69 C
343 18-05-2020 04:30:00 6.6 C 88 % 4.76 C
344 18-05-2020 04:35:00 6.5 C 88 % 4.66 C
345 18-05-2020 04:40:00 6.4 C 88 % 4.56 C
346 18-05-2020 04:45:00 6.4 C 88 % 4.56 C
347 18-05-2020 04:50:00 6.3 C 88 % 4.46 C
348 18-05-2020 04:55:00 6.2 C 88 % 4.36 C
349 18-05-2020 05:00:00 6.2 C 89 % 4.53 C
350 18-05-2020 05:05:00 6.2 C 89 % 4.53 C
Sensor: Nr:Datum:Temp:Feuchte:Taupunkt:
Aussen-T/F 351 18-05-2020 05:10:00 6.2 C 89 % 4.53 C
352 18-05-2020 05:15:00 6.2 C 89 % 4.53 C
353 18-05-2020 05:20:00 6.1 C 89 % 4.43 C
354 18-05-2020 05:25:00 6.1 C 89 % 4.43 C
355 18-05-2020 05:30:00 6 C 89 % 4.33 C
356 18-05-2020 05:35:00 5.9 C 89 % 4.23 C
357 18-05-2020 05:40:00 5.9 C 89 % 4.23 C
358 18-05-2020 05:45:00 5.9 C 90 % 4.39 C
359 18-05-2020 05:50:00 5.9 C 90 % 4.39 C
360 18-05-2020 05:55:00 5.9 C 90 % 4.39 C
361 18-05-2020 06:00:00 5.9 C 90 % 4.39 C
362 18-05-2020 06:05:00 5.9 C 90 % 4.39 C
363 18-05-2020 06:10:00 5.9 C 90 % 4.39 C
364 18-05-2020 06:15:00 5.8 C 90 % 4.29 C
365 18-05-2020 06:20:00 5.8 C 91 % 4.45 C
366 18-05-2020 06:25:00 5.8 C 91 % 4.45 C
367 18-05-2020 06:30:00 5.9 C 91 % 4.55 C
368 18-05-2020 06:35:00 5.9 C 91 % 4.55 C
369 18-05-2020 06:40:00 5.9 C 91 % 4.55 C
370 18-05-2020 06:45:00 6 C 91 % 4.65 C
371 18-05-2020 06:50:00 6.1 C 92 % 4.9 C
372 18-05-2020 06:55:00 6.2 C 92 % 5 C
373 18-05-2020 07:00:00 6.2 C 92 % 5 C
374 18-05-2020 07:05:00 6.3 C 92 % 5.1 C
375 18-05-2020 07:10:00 6.4 C 92 % 5.2 C
Sensor: Nr:Datum:Temp:Feuchte:Taupunkt:
Aussen-T/F 376 18-05-2020 07:15:00 6.5 C 92 % 5.3 C
377 18-05-2020 07:20:00 6.6 C 92 % 5.4 C
378 18-05-2020 07:25:00 6.7 C 92 % 5.49 C
379 18-05-2020 07:30:00 6.7 C 92 % 5.49 C
380 18-05-2020 07:35:00 6.8 C 92 % 5.59 C
381 18-05-2020 07:40:00 6.9 C 92 % 5.69 C
382 18-05-2020 07:45:00 7 C 92 % 5.79 C
383 18-05-2020 07:50:00 7.1 C 92 % 5.89 C
384 18-05-2020 07:55:00 7.2 C 92 % 5.99 C
385 18-05-2020 08:00:00 7.3 C 92 % 6.09 C
386 18-05-2020 08:05:00 7.4 C 92 % 6.19 C
387 18-05-2020 08:10:00 7.6 C 92 % 6.39 C
388 18-05-2020 08:15:00 7.7 C 92 % 6.48 C
389 18-05-2020 08:20:00 7.8 C 92 % 6.58 C
390 18-05-2020 08:25:00 8 C 92 % 6.78 C
391 18-05-2020 08:30:00 8.2 C 92 % 6.98 C
392 18-05-2020 08:35:00 8.3 C 92 % 7.08 C
393 18-05-2020 08:40:00 8.5 C 92 % 7.28 C
394 18-05-2020 08:45:00 8.7 C 92 % 7.47 C
395 18-05-2020 08:50:00 8.9 C 92 % 7.67 C
396 18-05-2020 08:55:00 9.1 C 92 % 7.87 C
397 18-05-2020 09:00:00 9.3 C 91 % 7.91 C
398 18-05-2020 09:05:00 9.6 C 91 % 8.21 C
399 18-05-2020 09:10:00 9.7 C 90 % 8.14 C
400 18-05-2020 09:15:00 10 C 89 % 8.27 C
Sensor: Nr:Datum:Temp:Feuchte:Taupunkt:
Aussen-T/F 401 18-05-2020 09:20:00 10.3 C 88 % 8.4 C
402 18-05-2020 09:25:00 10.5 C 88 % 8.6 C
403 18-05-2020 09:30:00 10.7 C 87 % 8.63 C
404 18-05-2020 09:35:00 10.9 C 87 % 8.82 C
405 18-05-2020 09:40:00 11 C 86 % 8.75 C
406 18-05-2020 09:45:00 11.2 C 85 % 8.77 C
407 18-05-2020 09:50:00 11.4 C 85 % 8.97 C
408 18-05-2020 09:55:00 11.7 C 84 % 9.09 C
409 18-05-2020 10:00:00 11.9 C 85 % 9.46 C
410 18-05-2020 10:05:00 12.2 C 84 % 9.58 C
411 18-05-2020 10:10:00 12.3 C 84 % 9.68 C
412 18-05-2020 10:15:00 12.6 C 84 % 9.97 C
413 18-05-2020 10:20:00 12.9 C 83 % 10.09 C
414 18-05-2020 10:25:00 13.2 C 79 % 9.64 C
415 18-05-2020 10:30:00 13.8 C 76 % 9.65 C
416 18-05-2020 10:35:00 14.4 C 75 % 10.03 C
417 18-05-2020 10:40:00 15 C 70 % 9.58 C
418 18-05-2020 10:45:00 15.7 C 63 % 8.68 C
419 18-05-2020 10:50:00 16.4 C 58 % 8.12 C
420 18-05-2020 10:55:00 17.3 C 55 % 8.18 C
421 18-05-2020 11:00:00 17.9 C 53 % 8.19 C
422 18-05-2020 11:05:00 18.3 C 52 % 8.28 C
423 18-05-2020 11:10:00 18.5 C 50 % 7.89 C
424 18-05-2020 11:15:00 18.7 C 53 % 8.93 C
425 18-05-2020 11:20:00 18.7 C 52 % 8.65 C
Sensor: Nr:Datum:Temp:Feuchte:Taupunkt:
Aussen-T/F 426 18-05-2020 11:25:00 18.8 C 52 % 8.75 C
427 18-05-2020 11:30:00 19 C 50 % 8.35 C
428 18-05-2020 11:35:00 19.2 C 50 % 8.53 C
429 18-05-2020 11:40:00 19.3 C 51 % 8.92 C
430 18-05-2020 11:45:00 19.4 C 49 % 8.42 C
431 18-05-2020 11:50:00 19.6 C 49 % 8.6 C
432 18-05-2020 11:55:00 19.7 C 47 % 8.08 C
433 18-05-2020 12:00:00 19.7 C 49 % 8.7 C
434 18-05-2020 12:05:00 19.8 C 48 % 8.48 C
435 18-05-2020 12:10:00 19.9 C 48 % 8.57 C
436 18-05-2020 12:15:00 20.1 C 47 % 8.45 C
437 18-05-2020 12:20:00 20.2 C 47 % 8.54 C
438 18-05-2020 12:25:00 20.3 C 47 % 8.63 C
439 18-05-2020 12:30:00 20.3 C 47 % 8.63 C
440 18-05-2020 12:35:00 20.2 C 47 % 8.54 C
441 18-05-2020 12:40:00 20.3 C 48 % 8.94 C
442 18-05-2020 12:45:00 20.4 C 46 % 8.4 C
443 18-05-2020 12:50:00 20.7 C 45 % 8.35 C
444 18-05-2020 12:55:00 20.8 C 45 % 8.44 C
445 18-05-2020 13:00:00 20.9 C 44 % 8.2 C
446 18-05-2020 13:05:00 20.9 C 45 % 8.53 C
447 18-05-2020 13:10:00 20.9 C 44 % 8.2 C
448 18-05-2020 13:15:00 21.1 C 43 % 8.04 C
449 18-05-2020 13:20:00 21.2 C 44 % 8.47 C
450 18-05-2020 13:25:00 21.3 C 43 % 8.22 C
Sensor: Nr:Datum:Temp:Feuchte:Taupunkt:
Aussen-T/F 451 18-05-2020 13:30:00 21.4 C 43 % 8.31 C
452 18-05-2020 13:35:00 21.6 C 43 % 8.49 C
453 18-05-2020 13:40:00 21.7 C 43 % 8.58 C
454 18-05-2020 13:45:00 22.1 C 43 % 8.95 C
455 18-05-2020 13:50:00 22.2 C 42 % 8.69 C
456 18-05-2020 13:55:00 22.1 C 40 % 7.88 C
457 18-05-2020 14:00:00 22 C 43 % 8.85 C
458 18-05-2020 14:05:00 22.2 C 40 % 7.97 C
459 18-05-2020 14:10:00 22.4 C 41 % 8.51 C
460 18-05-2020 14:15:00 22.6 C 42 % 9.05 C
461 18-05-2020 14:20:00 22.8 C 39 % 8.13 C
462 18-05-2020 14:25:00 22.9 C 40 % 8.59 C
463 18-05-2020 14:30:00 22.8 C 40 % 8.5 C
464 18-05-2020 14:35:00 22.8 C 38 % 7.75 C
465 18-05-2020 14:40:00 23 C 40 % 8.68 C
466 18-05-2020 14:45:00 23.2 C 38 % 8.11 C
467 18-05-2020 14:50:00 23.4 C 40 % 9.04 C
468 18-05-2020 14:55:00 23.6 C 38 % 8.46 C
469 18-05-2020 15:00:00 23.8 C 37 % 8.25 C
470 18-05-2020 15:05:00 23.8 C 37 % 8.25 C
471 18-05-2020 15:10:00 23.7 C 38 % 8.55 C
472 18-05-2020 15:15:00 23.9 C 37 % 8.33 C
473 18-05-2020 15:20:00 24.2 C 38 % 8.99 C
474 18-05-2020 15:25:00 24.3 C 39 % 9.47 C
475 18-05-2020 15:30:00 24.4 C 37 % 8.78 C
Sensor: Nr:Datum:Temp:Feuchte:Taupunkt:
Aussen-T/F 476 18-05-2020 15:35:00 24.6 C 37 % 8.95 C
477 18-05-2020 15:40:00 24.9 C 37 % 9.22 C
478 18-05-2020 15:45:00 25.1 C 37 % 9.39 C
479 18-05-2020 15:50:00 25.2 C 36 % 9.08 C
480 18-05-2020 15:55:00 25.3 C 36 % 9.16 C
481 18-05-2020 16:00:00 25.1 C 36 % 8.99 C
482 18-05-2020 16:05:00 25.1 C 35 % 8.57 C
483 18-05-2020 16:10:00 24.9 C 36 % 8.81 C
484 18-05-2020 16:15:00 25.1 C 36 % 8.99 C
485 18-05-2020 16:20:00 25.5 C 35 % 8.92 C
486 18-05-2020 16:25:00 25.7 C 35 % 9.1 C
487 18-05-2020 16:30:00 25.8 C 35 % 9.19 C
488 18-05-2020 16:35:00 25.8 C 36 % 9.61 C
489 18-05-2020 16:40:00 26.2 C 35 % 9.54 C
490 18-05-2020 16:45:00 26.1 C 35 % 9.45 C
491 18-05-2020 16:50:00 25.9 C 34 % 8.85 C
492 18-05-2020 16:55:00 25.9 C 35 % 9.27 C
493 18-05-2020 17:00:00 25.9 C 34 % 8.85 C
494 18-05-2020 17:05:00 25.7 C 34 % 8.67 C
495 18-05-2020 17:10:00 25.8 C 36 % 9.61 C
496 18-05-2020 17:15:00 26 C 35 % 9.36 C
497 18-05-2020 17:20:00 26 C 35 % 9.36 C
498 18-05-2020 17:25:00 25.8 C 36 % 9.61 C
499 18-05-2020 17:30:00 25.9 C 36 % 9.69 C
500 18-05-2020 17:35:00 25.8 C 36 % 9.61 C
Sensor: Nr:Datum:Temp:Feuchte:Taupunkt:
Aussen-T/F 501 18-05-2020 17:40:00 25.9 C 37 % 10.1 C
502 18-05-2020 17:45:00 25.9 C 36 % 9.69 C
503 18-05-2020 17:50:00 25.8 C 37 % 10.01 C
504 18-05-2020 17:55:00 25.9 C 37 % 10.1 C
505 18-05-2020 18:00:00 26 C 37 % 10.19 C
506 18-05-2020 18:05:00 26.2 C 37 % 10.37 C
507 18-05-2020 18:10:00 26.1 C 37 % 10.28 C
508 18-05-2020 18:15:00 26 C 37 % 10.19 C
509 18-05-2020 18:20:00 26 C 37 % 10.19 C
510 18-05-2020 18:25:00 25.9 C 38 % 10.5 C
511 18-05-2020 18:30:00 25.9 C 38 % 10.5 C
512 18-05-2020 18:35:00 26.1 C 38 % 10.68 C
513 18-05-2020 18:40:00 26.2 C 38 % 10.77 C
514 18-05-2020 18:45:00 26.1 C 39 % 11.07 C
515 18-05-2020 18:50:00 26.1 C 39 % 11.07 C
516 18-05-2020 18:55:00 26 C 39 % 10.98 C
517 18-05-2020 19:00:00 25.9 C 39 % 10.89 C
518 18-05-2020 19:05:00 25.8 C 39 % 10.8 C
519 18-05-2020 19:10:00 25.6 C 39 % 10.62 C
520 18-05-2020 19:15:00 25.5 C 41 % 11.29 C
521 18-05-2020 19:20:00 25.1 C 41 % 10.93 C
522 18-05-2020 19:25:00 24.8 C 42 % 11.02 C
523 18-05-2020 19:30:00 24.6 C 43 % 11.2 C
524 18-05-2020 19:35:00 24.5 C 43 % 11.11 C
525 18-05-2020 19:40:00 24.3 C 44 % 11.27 C
Sensor: Nr:Datum:Temp:Feuchte:Taupunkt:
Aussen-T/F 526 18-05-2020 19:45:00 24.2 C 44 % 11.18 C
527 18-05-2020 19:50:00 24.1 C 45 % 11.43 C
528 18-05-2020 19:55:00 23.8 C 45 % 11.16 C
529 18-05-2020 20:00:00 23.7 C 46 % 11.4 C
530 18-05-2020 20:05:00 23.6 C 46 % 11.31 C
531 18-05-2020 20:10:00 23.4 C 47 % 11.45 C
532 18-05-2020 20:15:00 23.3 C 47 % 11.36 C
533 18-05-2020 20:20:00 23.2 C 48 % 11.59 C
534 18-05-2020 20:25:00 23 C 48 % 11.41 C
535 18-05-2020 20:30:00 22.8 C 48 % 11.22 C
536 18-05-2020 20:35:00 22.7 C 49 % 11.44 C
537 18-05-2020 20:40:00 22.6 C 49 % 11.35 C
538 18-05-2020 20:45:00 22.4 C 50 % 11.47 C
539 18-05-2020 20:50:00 22.2 C 52 % 11.88 C
540 18-05-2020 20:55:00 21.8 C 52 % 11.51 C
541 18-05-2020 21:00:00 21.3 C 55 % 11.9 C
542 18-05-2020 21:05:00 20.9 C 55 % 11.53 C
543 18-05-2020 21:10:00 20.6 C 56 % 11.52 C
544 18-05-2020 21:15:00 20.2 C 57 % 11.42 C
545 18-05-2020 21:20:00 19.8 C 58 % 11.3 C
546 18-05-2020 21:25:00 19.5 C 58 % 11.02 C
547 18-05-2020 21:30:00 19.2 C 60 % 11.25 C
548 18-05-2020 21:35:00 18.8 C 61 % 11.13 C
549 18-05-2020 21:40:00 18.6 C 61 % 10.94 C
550 18-05-2020 21:45:00 18.3 C 62 % 10.9 C
Sensor: Nr:Datum:Temp:Feuchte:Taupunkt:
Aussen-T/F 551 18-05-2020 21:50:00 18.1 C 63 % 10.95 C
552 18-05-2020 21:55:00 17.9 C 64 % 11 C
553 18-05-2020 22:00:00 17.7 C 64 % 10.81 C
554 18-05-2020 22:05:00 17.6 C 65 % 10.95 C
555 18-05-2020 22:10:00 17.4 C 65 % 10.76 C
556 18-05-2020 22:15:00 17.3 C 66 % 10.89 C
557 18-05-2020 22:20:00 17.2 C 66 % 10.8 C
558 18-05-2020 22:25:00 17.1 C 67 % 10.93 C
559 18-05-2020 22:30:00 17 C 67 % 10.83 C
560 18-05-2020 22:35:00 16.9 C 68 % 10.96 C
561 18-05-2020 22:40:00 16.8 C 69 % 11.09 C
562 18-05-2020 22:45:00 16.6 C 69 % 10.89 C
563 18-05-2020 22:50:00 16.4 C 70 % 10.92 C
564 18-05-2020 22:55:00 16.3 C 70 % 10.82 C
565 18-05-2020 23:00:00 16.2 C 71 % 10.94 C
566 18-05-2020 23:05:00 16.2 C 71 % 10.94 C
567 18-05-2020 23:10:00 16.1 C 71 % 10.84 C
568 18-05-2020 23:15:00 16 C 71 % 10.75 C
569 18-05-2020 23:20:00 15.9 C 72 % 10.86 C
570 18-05-2020 23:25:00 15.8 C 72 % 10.77 C
571 18-05-2020 23:30:00 15.7 C 73 % 10.88 C
572 18-05-2020 23:35:00 15.4 C 73 % 10.59 C
573 18-05-2020 23:40:00 15.3 C 73 % 10.49 C
574 18-05-2020 23:45:00 15.3 C 74 % 10.7 C
575 18-05-2020 23:50:00 15.2 C 74 % 10.6 C
Sensor: Nr:Datum:Temp:Feuchte:Taupunkt:
Aussen-T/F 576 18-05-2020 23:55:00 15.2 C 74 % 10.6 C
577 19-05-2020 00:00:00 15 C 75 % 10.61 C
578 19-05-2020 00:05:00 14.8 C 75 % 10.42 C
579 19-05-2020 00:10:00 14.6 C 76 % 10.42 C
580 19-05-2020 00:15:00 14.4 C 76 % 10.23 C
581 19-05-2020 00:20:00 14.1 C 76 % 9.94 C
582 19-05-2020 00:25:00 13.9 C 77 % 9.94 C
583 19-05-2020 00:30:00 13.7 C 78 % 9.94 C
584 19-05-2020 00:35:00 13.4 C 79 % 9.84 C
585 19-05-2020 00:40:00 13.3 C 79 % 9.74 C
586 19-05-2020 00:45:00 13.2 C 80 % 9.83 C
587 19-05-2020 00:50:00 13 C 80 % 9.63 C
588 19-05-2020 00:55:00 12.9 C 80 % 9.54 C
589 19-05-2020 01:00:00 12.7 C 81 % 9.53 C
590 19-05-2020 01:05:00 12.6 C 82 % 9.61 C
591 19-05-2020 01:10:00 12.4 C 82 % 9.42 C
592 19-05-2020 01:15:00 12.3 C 83 % 9.5 C
593 19-05-2020 01:20:00 12.2 C 83 % 9.4 C
594 19-05-2020 01:25:00 12.1 C 84 % 9.48 C
595 19-05-2020 01:30:00 12 C 84 % 9.38 C
596 19-05-2020 01:35:00 11.9 C 85 % 9.46 C
597 19-05-2020 01:40:00 11.9 C 85 % 9.46 C
598 19-05-2020 01:45:00 11.8 C 85 % 9.36 C
599 19-05-2020 01:50:00 11.6 C 85 % 9.17 C
600 19-05-2020 01:55:00 11.5 C 85 % 9.07 C
Sensor: Nr:Datum:Temp:Feuchte:Taupunkt:
Aussen-T/F 601 19-05-2020 02:00:00 11.5 C 85 % 9.07 C
602 19-05-2020 02:05:00 11.4 C 85 % 8.97 C
603 19-05-2020 02:10:00 11.3 C 84 % 8.7 C
604 19-05-2020 02:15:00 11.3 C 85 % 8.87 C
605 19-05-2020 02:20:00 11.2 C 85 % 8.77 C
606 19-05-2020 02:25:00 11.2 C 85 % 8.77 C
607 19-05-2020 02:30:00 11.1 C 85 % 8.68 C
608 19-05-2020 02:35:00 10.9 C 85 % 8.48 C
609 19-05-2020 02:40:00 10.8 C 85 % 8.38 C
610 19-05-2020 02:45:00 10.7 C 85 % 8.28 C
611 19-05-2020 02:50:00 10.6 C 85 % 8.19 C
612 19-05-2020 02:55:00 10.4 C 86 % 8.16 C
613 19-05-2020 03:00:00 10.4 C 86 % 8.16 C
614 19-05-2020 03:05:00 10.3 C 87 % 8.23 C
615 19-05-2020 03:10:00 10.2 C 87 % 8.14 C
616 19-05-2020 03:15:00 10.1 C 87 % 8.04 C
617 19-05-2020 03:20:00 9.9 C 87 % 7.84 C
618 19-05-2020 03:25:00 9.8 C 88 % 7.91 C
619 19-05-2020 03:30:00 9.7 C 88 % 7.81 C
620 19-05-2020 03:35:00 9.7 C 88 % 7.81 C
621 19-05-2020 03:40:00 9.6 C 89 % 7.88 C
622 19-05-2020 03:45:00 9.5 C 89 % 7.78 C
623 19-05-2020 03:50:00 9.4 C 89 % 7.68 C
624 19-05-2020 03:55:00 9.3 C 89 % 7.58 C
625 19-05-2020 04:00:00 9.2 C 89 % 7.48 C
Sensor: Nr:Datum:Temp:Feuchte:Taupunkt:
Aussen-T/F 626 19-05-2020 04:05:00 9.1 C 90 % 7.55 C
627 19-05-2020 04:10:00 9 C 90 % 7.45 C
628 19-05-2020 04:15:00 8.9 C 90 % 7.35 C
629 19-05-2020 04:20:00 8.9 C 90 % 7.35 C
630 19-05-2020 04:25:00 8.9 C 91 % 7.51 C
631 19-05-2020 04:30:00 8.8 C 91 % 7.41 C
632 19-05-2020 04:35:00 8.9 C 91 % 7.51 C
633 19-05-2020 04:40:00 8.8 C 91 % 7.41 C
634 19-05-2020 04:45:00 8.8 C 91 % 7.41 C
635 19-05-2020 04:50:00 8.7 C 91 % 7.32 C
636 19-05-2020 04:55:00 8.7 C 90 % 7.15 C
637 19-05-2020 05:00:00 8.7 C 90 % 7.15 C
638 19-05-2020 05:05:00 8.7 C 91 % 7.32 C
639 19-05-2020 05:10:00 8.6 C 90 % 7.06 C
640 19-05-2020 05:15:00 8.4 C 90 % 6.86 C
641 19-05-2020 05:20:00 8.3 C 90 % 6.76 C
642 19-05-2020 05:25:00 8.3 C 90 % 6.76 C
643 19-05-2020 05:30:00 8.2 C 91 % 6.82 C
644 19-05-2020 05:35:00 8.2 C 91 % 6.82 C
645 19-05-2020 05:40:00 8.1 C 91 % 6.72 C
646 19-05-2020 05:45:00 8.1 C 91 % 6.72 C
647 19-05-2020 05:50:00 8.1 C 91 % 6.72 C
648 19-05-2020 05:55:00 8.1 C 91 % 6.72 C
649 19-05-2020 06:00:00 8.1 C 91 % 6.72 C
650 19-05-2020 06:05:00 8 C 91 % 6.62 C
Sensor: Nr:Datum:Temp:Feuchte:Taupunkt:
Aussen-T/F 651 19-05-2020 06:10:00 8.1 C 92 % 6.88 C
652 19-05-2020 06:15:00 8.1 C 92 % 6.88 C
653 19-05-2020 06:20:00 8.2 C 92 % 6.98 C
654 19-05-2020 06:25:00 8.2 C 92 % 6.98 C
655 19-05-2020 06:30:00 8.2 C 91 % 6.82 C
656 19-05-2020 06:35:00 8.2 C 91 % 6.82 C
657 19-05-2020 06:40:00 8.1 C 91 % 6.72 C
658 19-05-2020 06:45:00 8.1 C 91 % 6.72 C
659 19-05-2020 06:50:00 8.1 C 91 % 6.72 C
660 19-05-2020 06:55:00 8.1 C 92 % 6.88 C
661 19-05-2020 07:00:00 8.1 C 92 % 6.88 C
662 19-05-2020 07:05:00 8.2 C 92 % 6.98 C
663 19-05-2020 07:10:00 8.2 C 92 % 6.98 C
664 19-05-2020 07:15:00 8.3 C 92 % 7.08 C
665 19-05-2020 07:20:00 8.3 C 92 % 7.08 C
666 19-05-2020 07:25:00 8.3 C 92 % 7.08 C
667 19-05-2020 07:30:00 8.3 C 92 % 7.08 C
668 19-05-2020 07:35:00 8.4 C 92 % 7.18 C
669 19-05-2020 07:40:00 8.4 C 92 % 7.18 C
670 19-05-2020 07:45:00 8.5 C 92 % 7.28 C
671 19-05-2020 07:50:00 8.6 C 92 % 7.38 C
672 19-05-2020 07:55:00 8.6 C 92 % 7.38 C
673 19-05-2020 08:00:00 8.7 C 92 % 7.47 C
674 19-05-2020 08:05:00 8.8 C 92 % 7.57 C
675 19-05-2020 08:10:00 8.8 C 92 % 7.57 C
Sensor: Nr:Datum:Temp:Feuchte:Taupunkt:
Aussen-T/F 676 19-05-2020 08:15:00 8.9 C 93 % 7.83 C
677 19-05-2020 08:20:00 9.1 C 93 % 8.03 C
678 19-05-2020 08:25:00 9.2 C 93 % 8.13 C
679 19-05-2020 08:30:00 9.3 C 93 % 8.23 C
680 19-05-2020 08:35:00 9.4 C 92 % 8.17 C
681 19-05-2020 08:40:00 9.6 C 92 % 8.37 C
682 19-05-2020 08:45:00 9.7 C 92 % 8.46 C
683 19-05-2020 08:50:00 9.9 C 92 % 8.66 C
684 19-05-2020 08:55:00 10.1 C 92 % 8.86 C
685 19-05-2020 09:00:00 10.2 C 92 % 8.96 C
686 19-05-2020 09:05:00 10.4 C 92 % 9.16 C
687 19-05-2020 09:10:00 10.7 C 92 % 9.45 C
688 19-05-2020 09:15:00 10.8 C 91 % 9.39 C
689 19-05-2020 09:20:00 11 C 91 % 9.59 C
690 19-05-2020 09:25:00 11.3 C 90 % 9.72 C
691 19-05-2020 09:30:00 11.6 C 89 % 9.85 C
692 19-05-2020 09:35:00 11.9 C 87 % 9.81 C
693 19-05-2020 09:40:00 12.2 C 85 % 9.76 C
694 19-05-2020 09:45:00 12.6 C 83 % 9.79 C
695 19-05-2020 09:50:00 12.9 C 82 % 9.9 C
696 19-05-2020 09:55:00 13.1 C 82 % 10.1 C
697 19-05-2020 10:00:00 13.2 C 80 % 9.83 C
698 19-05-2020 10:05:00 13.4 C 79 % 9.84 C
699 19-05-2020 10:10:00 13.6 C 75 % 9.26 C
700 19-05-2020 10:15:00 13.9 C 75 % 9.55 C
Sensor: Nr:Datum:Temp:Feuchte:Taupunkt:
Aussen-T/F 701 19-05-2020 10:20:00 14.3 C 73 % 9.53 C
702 19-05-2020 10:25:00 14.7 C 71 % 9.5 C
703 19-05-2020 10:30:00 15.1 C 67 % 9.02 C
704 19-05-2020 10:35:00 15.5 C 67 % 9.41 C
705 19-05-2020 10:40:00 15.9 C 62 % 8.64 C
706 19-05-2020 10:45:00 16.4 C 59 % 8.38 C
707 19-05-2020 10:50:00 16.8 C 56 % 7.98 C
708 19-05-2020 10:55:00 17.5 C 50 % 6.97 C
709 19-05-2020 11:00:00 18.1 C 51 % 7.81 C
710 19-05-2020 11:05:00 18.7 C 46 % 6.86 C
711 19-05-2020 11:10:00 19.1 C 46 % 7.22 C
712 19-05-2020 11:15:00 19.4 C 47 % 7.81 C
713 19-05-2020 11:20:00 19.7 C 44 % 7.12 C
714 19-05-2020 11:25:00 19.8 C 47 % 8.17 C
715 19-05-2020 11:30:00 19.8 C 46 % 7.86 C
716 19-05-2020 11:35:00 19.8 C 44 % 7.21 C
717 19-05-2020 11:40:00 19.8 C 45 % 7.53 C
718 19-05-2020 11:45:00 19.9 C 44 % 7.3 C
719 19-05-2020 11:50:00 20 C 43 % 7.05 C
720 19-05-2020 11:55:00 20.1 C 43 % 7.14 C
721 19-05-2020 12:00:00 20.1 C 44 % 7.48 C
722 19-05-2020 12:05:00 20.1 C 40 % 6.09 C
723 19-05-2020 12:10:00 20.2 C 40 % 6.18 C
724 19-05-2020 12:15:00 20.2 C 41 % 6.54 C
725 19-05-2020 12:20:00 20.2 C 41 % 6.54 C
Sensor: Nr:Datum:Temp:Feuchte:Taupunkt:
Aussen-T/F 726 19-05-2020 12:25:00 20.3 C 40 % 6.27 C
727 19-05-2020 12:30:00 20.4 C 40 % 6.36 C
728 19-05-2020 12:35:00 20.4 C 42 % 7.07 C
729 19-05-2020 12:40:00 20.4 C 41 % 6.72 C
730 19-05-2020 12:45:00 20.4 C 38 % 5.62 C
731 19-05-2020 12:50:00 20.6 C 37 % 5.41 C
732 19-05-2020 12:55:00 20.8 C 41 % 7.08 C
733 19-05-2020 13:00:00 20.9 C 40 % 6.81 C
734 19-05-2020 13:05:00 21 C 37 % 5.77 C
735 19-05-2020 13:10:00 21.2 C 39 % 6.71 C
736 19-05-2020 13:15:00 21.4 C 37 % 6.12 C
737 19-05-2020 13:20:00 21.7 C 38 % 6.77 C
738 19-05-2020 13:25:00 21.8 C 37 % 6.48 C
739 19-05-2020 13:30:00 22 C 37 % 6.65 C
740 19-05-2020 13:35:00 22 C 38 % 7.04 C
741 19-05-2020 13:40:00 22.1 C 38 % 7.13 C
742 19-05-2020 13:45:00 22.2 C 36 % 6.43 C
743 19-05-2020 13:50:00 22.3 C 36 % 6.52 C
744 19-05-2020 13:55:00 22.4 C 36 % 6.61 C
745 19-05-2020 14:00:00 22.4 C 38 % 7.4 C
746 19-05-2020 14:05:00 22.6 C 37 % 7.18 C
747 19-05-2020 14:10:00 23 C 36 % 7.14 C
748 19-05-2020 14:15:00 23.1 C 36 % 7.23 C
749 19-05-2020 14:20:00 23.1 C 36 % 7.23 C
750 19-05-2020 14:25:00 23.3 C 36 % 7.4 C
Sensor: Nr:Datum:Temp:Feuchte:Taupunkt:
Aussen-T/F 751 19-05-2020 14:30:00 23.3 C 36 % 7.4 C
752 19-05-2020 14:35:00 23.4 C 37 % 7.89 C
753 19-05-2020 14:40:00 23.5 C 36 % 7.58 C
754 19-05-2020 14:45:00 23.6 C 38 % 8.46 C
755 19-05-2020 14:50:00 23.7 C 38 % 8.55 C
756 19-05-2020 14:55:00 23.7 C 39 % 8.93 C
757 19-05-2020 15:00:00 23.9 C 40 % 9.49 C
758 19-05-2020 15:05:00 24.2 C 39 % 9.38 C
759 19-05-2020 15:10:00 24.2 C 39 % 9.38 C
760 19-05-2020 15:15:00 24.3 C 39 % 9.47 C
761 19-05-2020 15:20:00 24.3 C 38 % 9.08 C
762 19-05-2020 15:25:00 24.3 C 39 % 9.47 C
763 19-05-2020 15:30:00 24.3 C 37 % 8.69 C
764 19-05-2020 15:35:00 24.1 C 39 % 9.29 C
765 19-05-2020 15:40:00 24.1 C 39 % 9.29 C
766 19-05-2020 15:45:00 24 C 40 % 9.58 C
767 19-05-2020 15:50:00 23.9 C 40 % 9.49 C
768 19-05-2020 15:55:00 23.8 C 41 % 9.76 C
769 19-05-2020 16:00:00 24.1 C 41 % 10.03 C
770 19-05-2020 16:05:00 24.4 C 41 % 10.3 C
771 19-05-2020 16:10:00 24.5 C 40 % 10.02 C
772 19-05-2020 16:15:00 24.5 C 40 % 10.02 C
773 19-05-2020 16:20:00 24.6 C 41 % 10.48 C
774 19-05-2020 16:25:00 25.1 C 40 % 10.56 C
775 19-05-2020 16:30:00 25 C 39 % 10.09 C
Sensor: Nr:Datum:Temp:Feuchte:Taupunkt:
Aussen-T/F 776 19-05-2020 16:35:00 24.7 C 40 % 10.2 C
777 19-05-2020 16:40:00 24.8 C 40 % 10.29 C
778 19-05-2020 16:45:00 24.7 C 40 % 10.2 C
779 19-05-2020 16:50:00 24.6 C 40 % 10.11 C
780 19-05-2020 16:55:00 24.4 C 41 % 10.3 C
781 19-05-2020 17:00:00 24.6 C 42 % 10.84 C
782 19-05-2020 17:05:00 24.8 C 42 % 11.02 C
783 19-05-2020 17:10:00 25.1 C 40 % 10.56 C
784 19-05-2020 17:15:00 25 C 41 % 10.84 C
785 19-05-2020 17:20:00 25.1 C 42 % 11.29 C
786 19-05-2020 17:25:00 25.5 C 41 % 11.29 C
787 19-05-2020 17:30:00 25.8 C 41 % 11.56 C
788 19-05-2020 17:35:00 25.7 C 40 % 11.09 C
789 19-05-2020 17:40:00 25.5 C 41 % 11.29 C
790 19-05-2020 17:45:00 25.5 C 41 % 11.29 C
791 19-05-2020 17:50:00 25.3 C 41 % 11.11 C
792 19-05-2020 17:55:00 25.3 C 42 % 11.47 C
793 19-05-2020 18:00:00 25.4 C 41 % 11.2 C
794 19-05-2020 18:05:00 25.5 C 41 % 11.29 C
795 19-05-2020 18:10:00 25.5 C 41 % 11.29 C
796 19-05-2020 18:15:00 25.5 C 41 % 11.29 C
797 19-05-2020 18:20:00 25.4 C 41 % 11.2 C
798 19-05-2020 18:25:00 25.5 C 42 % 11.65 C
799 19-05-2020 18:30:00 25.4 C 42 % 11.56 C
800 19-05-2020 18:35:00 25.4 C 42 % 11.56 C
Sensor: Nr:Datum:Temp:Feuchte:Taupunkt:
Aussen-T/F 801 19-05-2020 18:40:00 25.4 C 42 % 11.56 C
802 19-05-2020 18:45:00 25.4 C 42 % 11.56 C
803 19-05-2020 18:50:00 25.5 C 42 % 11.65 C
804 19-05-2020 18:55:00 25.3 C 42 % 11.47 C
805 19-05-2020 19:00:00 25.2 C 43 % 11.74 C
806 19-05-2020 19:05:00 25.2 C 43 % 11.74 C
807 19-05-2020 19:10:00 25 C 43 % 11.56 C
808 19-05-2020 19:15:00 24.8 C 45 % 12.06 C
809 19-05-2020 19:20:00 24.6 C 44 % 11.54 C
810 19-05-2020 19:25:00 24.4 C 46 % 12.04 C
811 19-05-2020 19:30:00 24.3 C 46 % 11.94 C
812 19-05-2020 19:35:00 24.1 C 47 % 12.09 C
813 19-05-2020 19:40:00 23.9 C 47 % 11.91 C
814 19-05-2020 19:45:00 23.7 C 47 % 11.73 C
815 19-05-2020 19:50:00 23.6 C 48 % 11.95 C
816 19-05-2020 19:55:00 23.4 C 48 % 11.77 C
817 19-05-2020 20:00:00 23.3 C 48 % 11.68 C
818 19-05-2020 20:05:00 23.1 C 49 % 11.81 C
819 19-05-2020 20:10:00 22.8 C 50 % 11.84 C
820 19-05-2020 20:15:00 22.5 C 50 % 11.56 C
821 19-05-2020 20:20:00 22.4 C 53 % 12.36 C
822 19-05-2020 20:25:00 21.9 C 58 % 13.27 C
823 19-05-2020 20:30:00 21.3 C 58 % 12.71 C
824 19-05-2020 20:35:00 20.9 C 57 % 12.07 C
825 19-05-2020 20:40:00 20.8 C 57 % 11.97 C
Sensor: Nr:Datum:Temp:Feuchte:Taupunkt:
Aussen-T/F 826 19-05-2020 20:45:00 20.8 C 58 % 12.24 C
827 19-05-2020 20:50:00 20.8 C 57 % 11.97 C
828 19-05-2020 20:55:00 20.9 C 59 % 12.59 C
829 19-05-2020 21:00:00 20.8 C 60 % 12.76 C
830 19-05-2020 21:05:00 20.7 C 61 % 12.91 C
831 19-05-2020 21:10:00 20.3 C 61 % 12.54 C
832 19-05-2020 21:15:00 20 C 61 % 12.26 C
833 19-05-2020 21:20:00 19.7 C 62 % 12.22 C
834 19-05-2020 21:25:00 19.3 C 63 % 12.09 C
835 19-05-2020 21:30:00 18.9 C 64 % 11.95 C
836 19-05-2020 21:35:00 18.7 C 65 % 11.99 C
837 19-05-2020 21:40:00 18.4 C 66 % 11.94 C
838 19-05-2020 21:45:00 18.2 C 67 % 11.98 C
839 19-05-2020 21:50:00 17.9 C 67 % 11.69 C
840 19-05-2020 21:55:00 17.8 C 68 % 11.82 C
841 19-05-2020 22:00:00 17.6 C 68 % 11.63 C
842 19-05-2020 22:05:00 17.4 C 69 % 11.66 C
843 19-05-2020 22:10:00 17.3 C 70 % 11.78 C
844 19-05-2020 22:15:00 17.2 C 70 % 11.68 C
845 19-05-2020 22:20:00 17.1 C 70 % 11.59 C
846 19-05-2020 22:25:00 17.1 C 71 % 11.8 C
847 19-05-2020 22:30:00 16.9 C 70 % 11.4 C
848 19-05-2020 22:35:00 16.9 C 71 % 11.61 C
849 19-05-2020 22:40:00 16.8 C 72 % 11.73 C
850 19-05-2020 22:45:00 16.7 C 72 % 11.63 C
Sensor: Nr:Datum:Temp:Feuchte:Taupunkt:
Aussen-T/F 851 19-05-2020 22:50:00 16.6 C 73 % 11.74 C
852 19-05-2020 22:55:00 16.4 C 73 % 11.55 C
853 19-05-2020 23:00:00 16.3 C 74 % 11.66 C
854 19-05-2020 23:05:00 16.1 C 75 % 11.67 C
855 19-05-2020 23:10:00 15.9 C 75 % 11.48 C
856 19-05-2020 23:15:00 15.8 C 76 % 11.58 C
857 19-05-2020 23:20:00 15.7 C 76 % 11.48 C
858 19-05-2020 23:25:00 15.6 C 77 % 11.59 C
859 19-05-2020 23:30:00 15.5 C 77 % 11.49 C
860 19-05-2020 23:35:00 15.4 C 77 % 11.39 C
861 19-05-2020 23:40:00 15.3 C 78 % 11.49 C
862 19-05-2020 23:45:00 15.2 C 78 % 11.39 C
863 19-05-2020 23:50:00 15.1 C 79 % 11.49 C
864 19-05-2020 23:55:00 15.1 C 80 % 11.68 C

Legende:
   Min
   Max


Maximal/Minimal-Werte vom 17.05.2020 - 19.05.2020

Sensor Min Max Avg
Temp
(Aussen-T/F)
5.8 °C
18-05-2020  06:15:00
26.2 °C
18-05-2020  16:40:00
15.13 °C
Feuchte
(Aussen-T/F)
33 %
17-05-2020  17:25:00
93 %
19-05-2020  08:15:00
64.72 %
Taupunkt
(Aussen-T/F)
3.94 C
17-05-2020  17:05:00
13.27 C
19-05-2020  20:25:00
7.59 C

Die Daten stammen von einer Davis Vantage Pro 2 Wetter-Station und werden unter Linux mit der Software wview2wettercgi und aufbereitet. Alle Angaben erfolgen ohne Gewähr für ihre Vollständigkeit oder Richtigkeit.
Kontakt: Rainer Krienke krienke@uni-koblenz.de . Meine Webseiten an der Uni Koblenz oder privat.
Version: $Revision: 0.78 $